date,time,SUV Intensity [MED/Hr],UV Index,Daily total [MED],Since Last [MED]
24/04/2022,00:07:16,-0.000,0.0,0.0,0.0
24/04/2022,00:08:16,0.001,0.0,0.0,0.0
24/04/2022,00:09:17,0.000,0.0,0.0,0.0
24/04/2022,00:10:16,0.001,0.0,0.0,0.0
24/04/2022,00:11:17,-0.000,0.0,0.0,0.0
24/04/2022,00:12:17,0.000,0.0,0.0,0.0
24/04/2022,00:13:18,-0.000,0.0,0.0,0.0
24/04/2022,00:14:16,-0.001,0.0,0.0,0.0
24/04/2022,00:15:25,0.000,0.0,0.0,0.0
24/04/2022,00:17:17,-0.000,0.0,0.0,0.0
24/04/2022,00:18:16,-0.001,0.0,0.0,0.0
24/04/2022,00:19:16,-0.000,0.0,0.0,0.0
24/04/2022,00:20:17,-0.000,0.0,0.0,0.0
24/04/2022,00:21:20,0.000,0.0,0.0,0.0
24/04/2022,00:22:16,0.000,0.0,0.0,0.0
24/04/2022,00:23:17,-0.000,0.0,0.0,0.0
24/04/2022,00:24:17,-0.000,0.0,0.0,0.0
24/04/2022,00:25:17,-0.000,0.0,0.0,0.0
24/04/2022,00:26:16,0.000,0.0,0.0,0.0
24/04/2022,00:27:17,0.000,0.0,0.0,0.0
24/04/2022,00:28:17,0.000,0.0,0.0,0.0
24/04/2022,00:29:17,-0.001,0.0,0.0,0.0
24/04/2022,00:30:16,0.001,0.0,0.0,0.0
24/04/2022,00:31:16,0.000,0.0,0.0,0.0
24/04/2022,00:32:16,0.000,0.0,0.0,0.0
24/04/2022,00:33:16,0.000,0.0,0.0,0.0
24/04/2022,00:34:25,0.000,0.0,0.0,0.0
24/04/2022,00:36:17,0.000,0.0,0.0,0.0
24/04/2022,00:37:17,0.000,0.0,0.0,0.0
24/04/2022,00:38:17,0.000,0.0,0.0,0.0
24/04/2022,00:39:17,0.000,0.0,0.0,0.0
24/04/2022,00:40:25,0.000,0.0,0.0,0.0
24/04/2022,00:41:16,0.000,0.0,0.0,0.0
24/04/2022,00:42:17,0.000,0.0,0.0,0.0
24/04/2022,00:43:16,0.001,0.0,0.0,0.0
24/04/2022,00:44:25,0.001,0.0,0.0,0.0
24/04/2022,00:46:17,0.000,0.0,0.0,0.0
24/04/2022,00:47:16,0.000,0.0,0.0,0.0
24/04/2022,00:48:17,0.000,0.0,0.0,0.0
24/04/2022,00:49:17,0.000,0.0,0.0,0.0
24/04/2022,00:50:17,0.000,0.0,0.0,0.0
24/04/2022,00:51:17,-0.001,0.0,0.0,0.0
24/04/2022,00:52:16,0.000,0.0,0.0,0.0
24/04/2022,00:53:25,0.000,0.0,0.0,0.0
24/04/2022,00:54:16,0.000,0.0,0.0,0.0
24/04/2022,00:55:17,-0.001,0.0,0.0,0.0
24/04/2022,00:56:16,0.001,0.0,0.0,0.0
24/04/2022,00:57:17,0.000,0.0,0.0,0.0
24/04/2022,00:58:16,0.000,0.0,0.0,0.0
24/04/2022,00:59:16,0.001,0.0,0.0,0.0
24/04/2022,01:00:16,0.000,0.0,0.0,0.0
24/04/2022,01:01:17,0.001,0.0,0.0,0.0
24/04/2022,01:02:16,0.000,0.0,0.0,0.0
24/04/2022,01:03:18,0.000,0.0,0.0,0.0
24/04/2022,01:04:17,0.000,0.0,0.0,0.0
24/04/2022,01:05:17,0.000,0.0,0.0,0.0
24/04/2022,01:06:24,0.000,0.0,0.0,0.0
24/04/2022,01:07:16,0.000,0.0,0.0,0.0
24/04/2022,01:08:17,0.000,0.0,0.0,0.0
24/04/2022,01:09:18,0.000,0.0,0.0,0.0
24/04/2022,01:10:16,0.000,0.0,0.0,0.0
24/04/2022,01:11:17,0.000,0.0,0.0,0.0
24/04/2022,01:12:25,0.000,0.0,0.0,0.0
24/04/2022,01:14:18,0.000,0.0,0.0,0.0
24/04/2022,01:15:16,0.000,0.0,0.0,0.0
24/04/2022,01:16:17,0.001,0.0,0.0,0.0
24/04/2022,01:17:17,0.000,0.0,0.0,0.0
24/04/2022,01:18:17,0.000,0.0,0.0,0.0
24/04/2022,01:19:17,0.001,0.0,0.0,0.0
24/04/2022,01:20:17,0.001,0.0,0.0,0.0
24/04/2022,01:21:25,0.000,0.0,0.0,0.0
24/04/2022,01:22:16,0.000,0.0,0.0,0.0
24/04/2022,01:23:17,0.000,0.0,0.0,0.0
24/04/2022,01:24:16,0.001,0.0,0.0,0.0
24/04/2022,01:25:17,0.000,0.0,0.0,0.0
24/04/2022,01:26:16,0.000,0.0,0.0,0.0
24/04/2022,01:27:16,0.000,0.0,0.0,0.0
24/04/2022,01:28:17,0.001,0.0,0.0,0.0
24/04/2022,01:29:17,0.000,0.0,0.0,0.0
24/04/2022,01:30:16,0.001,0.0,0.0,0.0
24/04/2022,01:31:25,0.000,0.0,0.0,0.0
24/04/2022,01:32:16,0.000,0.0,0.0,0.0
24/04/2022,01:33:17,0.000,0.0,0.0,0.0
24/04/2022,01:34:17,0.000,0.0,0.0,0.0
24/04/2022,01:35:16,0.000,0.0,0.0,0.0
24/04/2022,01:36:17,0.001,0.0,0.0,0.0
24/04/2022,01:37:17,0.001,0.0,0.0,0.0
24/04/2022,01:38:17,0.001,0.0,0.0,0.0
24/04/2022,01:39:17,0.001,0.0,0.0,0.0
24/04/2022,01:40:17,0.000,0.0,0.0,0.0
24/04/2022,01:41:25,0.000,0.0,0.0,0.0
24/04/2022,01:43:17,0.000,0.0,0.0,0.0
24/04/2022,01:44:24,0.000,0.0,0.0,0.0
24/04/2022,01:45:16,0.000,0.0,0.0,0.0
24/04/2022,01:46:16,0.000,0.0,0.0,0.0
24/04/2022,01:47:16,0.000,0.0,0.0,0.0
24/04/2022,01:48:16,0.001,0.0,0.0,0.0
24/04/2022,01:49:17,0.000,0.0,0.0,0.0
24/04/2022,01:50:25,0.000,0.0,0.0,0.0
24/04/2022,01:51:16,-0.000,0.0,0.0,0.0
24/04/2022,01:52:17,0.000,0.0,0.0,0.0
24/04/2022,01:53:16,0.000,0.0,0.0,0.0
24/04/2022,01:54:18,0.000,0.0,0.0,0.0
24/04/2022,01:55:17,0.000,0.0,0.0,0.0
24/04/2022,01:56:17,0.000,0.0,0.0,0.0
24/04/2022,01:57:16,0.001,0.0,0.0,0.0
24/04/2022,01:58:16,0.000,0.0,0.0,0.0
24/04/2022,01:59:17,0.000,0.0,0.0,0.0
24/04/2022,02:00:25,0.001,0.0,0.0,0.0
24/04/2022,02:01:16,0.000,0.0,0.0,0.0
24/04/2022,02:02:17,0.000,0.0,0.0,0.0
24/04/2022,02:03:16,0.000,0.0,0.0,0.0
24/04/2022,02:04:17,0.000,0.0,0.0,0.0
24/04/2022,02:05:17,-0.000,0.0,0.0,0.0
24/04/2022,02:06:17,0.000,0.0,0.0,0.0
24/04/2022,02:07:16,0.001,0.0,0.0,0.0
24/04/2022,02:08:17,0.000,0.0,0.0,0.0
24/04/2022,02:09:17,0.001,0.0,0.0,0.0
24/04/2022,02:10:17,0.001,0.0,0.0,0.0
24/04/2022,02:11:17,0.000,0.0,0.0,0.0
24/04/2022,02:12:16,0.000,0.0,0.0,0.0
24/04/2022,02:13:25,0.001,0.0,0.0,0.0
24/04/2022,02:15:17,0.001,0.0,0.0,0.0
24/04/2022,02:16:17,0.001,0.0,0.0,0.0
24/04/2022,02:17:17,0.000,0.0,0.0,0.0
24/04/2022,02:18:17,0.001,0.0,0.0,0.0
24/04/2022,02:19:25,0.001,0.0,0.0,0.0
24/04/2022,02:20:17,0.001,0.0,0.0,0.0
24/04/2022,02:21:17,0.001,0.0,0.0,0.0
24/04/2022,02:22:25,0.001,0.0,0.0,0.0
24/04/2022,02:23:16,0.001,0.0,0.0,0.0
24/04/2022,02:24:17,0.000,0.0,0.0,0.0
24/04/2022,02:25:16,0.001,0.0,0.0,0.0
24/04/2022,02:26:17,0.001,0.0,0.0,0.0
24/04/2022,02:27:17,0.001,0.0,0.0,0.0
24/04/2022,02:28:17,0.001,0.0,0.0,0.0
24/04/2022,02:29:25,0.000,0.0,0.0,0.0
24/04/2022,02:30:17,0.001,0.0,0.0,0.0
24/04/2022,02:31:25,0.001,0.0,0.0,0.0
24/04/2022,02:32:16,0.000,0.0,0.0,0.0
24/04/2022,02:33:17,0.001,0.0,0.0,0.0
24/04/2022,02:34:16,0.001,0.0,0.0,0.0
24/04/2022,02:35:17,0.002,0.0,0.0,0.0
24/04/2022,02:36:16,0.001,0.0,0.0,0.0
24/04/2022,02:37:17,0.001,0.0,0.0,0.0
24/04/2022,02:38:16,0.001,0.0,0.0,0.0
24/04/2022,02:39:17,0.001,0.0,0.0,0.0
24/04/2022,02:40:16,0.001,0.0,0.0,0.0
24/04/2022,02:41:16,0.001,0.0,0.0,0.0
24/04/2022,02:42:25,0.001,0.0,0.0,0.0
24/04/2022,02:43:17,0.001,0.0,0.0,0.0
24/04/2022,02:44:16,-0.000,0.0,0.0,0.0
24/04/2022,02:45:25,0.001,0.0,0.0,0.0
24/04/2022,02:46:17,0.001,0.0,0.0,0.0
24/04/2022,02:47:17,0.001,0.0,0.0,0.0
24/04/2022,02:48:25,0.001,0.0,0.0,0.0
24/04/2022,02:49:17,0.001,0.0,0.0,0.0
24/04/2022,02:50:17,0.001,0.0,0.0,0.0
24/04/2022,02:51:25,0.001,0.0,0.0,0.0
24/04/2022,02:52:17,0.001,0.0,0.0,0.0
24/04/2022,02:53:17,0.001,0.0,0.0,0.0
24/04/2022,02:54:17,0.001,0.0,0.0,0.0
24/04/2022,02:55:16,0.001,0.0,0.0,0.0
24/04/2022,02:56:16,0.001,0.0,0.0,0.0
24/04/2022,02:57:17,0.001,0.0,0.0,0.0
24/04/2022,02:58:17,0.001,0.0,0.0,0.0
24/04/2022,02:59:17,0.001,0.0,0.0,0.0
24/04/2022,03:00:17,0.001,0.0,0.0,0.0
24/04/2022,03:01:25,0.001,0.0,0.0,0.0
24/04/2022,03:02:17,0.001,0.0,0.0,0.0
24/04/2022,03:03:16,0.001,0.0,0.0,0.0
24/04/2022,03:04:17,0.001,0.0,0.0,0.0
24/04/2022,03:05:17,0.001,0.0,0.0,0.0
24/04/2022,03:06:16,0.001,0.0,0.0,0.0
24/04/2022,03:07:16,0.001,0.0,0.0,0.0
24/04/2022,03:08:16,0.001,0.0,0.0,0.0
24/04/2022,03:09:17,0.001,0.0,0.0,0.0
24/04/2022,03:10:17,0.000,0.0,0.0,0.0
24/04/2022,03:11:25,0.001,0.0,0.0,0.0
24/04/2022,03:12:17,0.001,0.0,0.0,0.0
24/04/2022,03:13:16,0.001,0.0,0.0,0.0
24/04/2022,03:14:25,0.001,0.0,0.0,0.0
24/04/2022,03:15:16,0.001,0.0,0.0,0.0
24/04/2022,03:16:16,0.001,0.0,0.0,0.0
24/04/2022,03:17:16,0.001,0.0,0.0,0.0
24/04/2022,03:18:17,0.001,0.0,0.0,0.0
24/04/2022,03:19:17,0.001,0.0,0.0,0.0
24/04/2022,03:20:17,0.001,0.0,0.0,0.0
24/04/2022,03:21:17,0.001,0.0,0.0,0.0
24/04/2022,03:22:17,0.001,0.0,0.0,0.0
24/04/2022,03:23:17,0.001,0.0,0.0,0.0
24/04/2022,03:24:17,0.001,0.0,0.0,0.0
24/04/2022,03:25:17,0.000,0.0,0.0,0.0
24/04/2022,03:26:17,0.001,0.0,0.0,0.0
24/04/2022,03:27:25,0.001,0.0,0.0,0.0
24/04/2022,03:28:16,0.001,0.0,0.0,0.0
24/04/2022,03:29:17,0.001,0.0,0.0,0.0
24/04/2022,03:30:26,0.001,0.0,0.0,0.0
24/04/2022,03:31:16,0.001,0.0,0.0,0.0
24/04/2022,03:32:17,0.001,0.0,0.0,0.0
24/04/2022,03:33:17,0.001,0.0,0.0,0.0
24/04/2022,03:34:17,0.001,0.0,0.0,0.0
24/04/2022,03:35:17,0.001,0.0,0.0,0.0
24/04/2022,03:36:17,0.001,0.0,0.0,0.0
24/04/2022,03:37:17,0.001,0.0,0.0,0.0
24/04/2022,03:38:17,0.001,0.0,0.0,0.0
24/04/2022,03:39:17,0.001,0.0,0.0,0.0
24/04/2022,03:40:26,0.001,0.0,0.0,0.0
24/04/2022,03:42:17,0.001,0.0,0.0,0.0
24/04/2022,03:43:17,0.001,0.0,0.0,0.0
24/04/2022,03:44:17,0.001,0.0,0.0,0.0
24/04/2022,03:45:17,0.000,0.0,0.0,0.0
24/04/2022,03:46:17,0.001,0.0,0.0,0.0
24/04/2022,03:47:17,0.000,0.0,0.0,0.0
24/04/2022,03:48:17,0.000,0.0,0.0,0.0
24/04/2022,03:49:18,0.000,0.0,0.0,0.0
24/04/2022,03:50:17,0.000,0.0,0.0,0.0
24/04/2022,03:51:16,0.000,0.0,0.0,0.0
24/04/2022,03:52:17,0.001,0.0,0.0,0.0
24/04/2022,03:53:16,0.000,0.0,0.0,0.0
24/04/2022,03:54:17,0.000,0.0,0.0,0.0
24/04/2022,03:55:17,0.000,0.0,0.0,0.0
24/04/2022,03:56:25,0.001,0.0,0.0,0.0
24/04/2022,03:57:16,0.000,0.0,0.0,0.0
24/04/2022,03:58:17,0.000,0.0,0.0,0.0
24/04/2022,03:59:17,0.000,0.0,0.0,0.0
24/04/2022,04:00:17,0.001,0.0,0.0,0.0
24/04/2022,04:01:17,0.000,0.0,0.0,0.0
24/04/2022,04:02:17,0.001,0.0,0.0,0.0
24/04/2022,04:03:18,0.000,0.0,0.0,0.0
24/04/2022,04:04:17,0.000,0.0,0.0,0.0
24/04/2022,04:05:19,0.000,0.0,0.0,0.0
24/04/2022,04:06:17,0.000,0.0,0.0,0.0
24/04/2022,04:07:17,0.000,0.0,0.0,0.0
24/04/2022,04:08:17,0.001,0.0,0.0,0.0
24/04/2022,04:09:17,0.000,0.0,0.0,0.0
24/04/2022,04:10:17,0.000,0.0,0.0,0.0
24/04/2022,04:11:08,0.000,0.0,0.0,0.0
24/04/2022,04:12:17,-0.001,0.0,0.0,0.0
24/04/2022,04:13:08,0.000,0.0,0.0,0.0
24/04/2022,04:14:17,0.000,0.0,0.0,0.0
24/04/2022,04:15:17,0.000,0.0,0.0,0.0
24/04/2022,04:16:17,0.000,0.0,0.0,0.0
24/04/2022,04:17:17,-0.001,0.0,0.0,0.0
24/04/2022,04:18:17,0.000,0.0,0.0,0.0
24/04/2022,04:19:17,0.000,0.0,0.0,0.0
24/04/2022,04:20:17,0.000,0.0,0.0,0.0
24/04/2022,04:21:17,0.000,0.0,0.0,0.0
24/04/2022,04:22:17,0.000,0.0,0.0,0.0
24/04/2022,04:23:17,0.000,0.0,0.0,0.0
24/04/2022,04:24:17,0.000,0.0,0.0,0.0
24/04/2022,04:25:17,-0.001,0.0,0.0,0.0
24/04/2022,04:26:17,0.000,0.0,0.0,0.0
24/04/2022,04:27:16,0.001,0.0,0.0,0.0
24/04/2022,04:28:17,0.000,0.0,0.0,0.0
24/04/2022,04:29:17,0.000,0.0,0.0,0.0
24/04/2022,04:30:17,-0.001,0.0,0.0,0.0
24/04/2022,04:31:17,0.000,0.0,0.0,0.0
24/04/2022,04:32:17,0.001,0.0,0.0,0.0
24/04/2022,04:33:17,0.000,0.0,0.0,0.0
24/04/2022,04:34:17,0.000,0.0,0.0,0.0
24/04/2022,04:35:17,0.000,0.0,0.0,0.0
24/04/2022,04:36:17,0.000,0.0,0.0,0.0
24/04/2022,04:37:17,-0.000,0.0,0.0,0.0
24/04/2022,04:38:16,0.000,0.0,0.0,0.0
24/04/2022,04:39:17,0.000,0.0,0.0,0.0
24/04/2022,04:40:17,0.000,0.0,0.0,0.0
24/04/2022,04:41:17,0.000,0.0,0.0,0.0
24/04/2022,04:42:17,0.001,0.0,0.0,0.0
24/04/2022,04:43:17,0.000,0.0,0.0,0.0
24/04/2022,04:44:17,0.001,0.0,0.0,0.0
24/04/2022,04:45:17,0.000,0.0,0.0,0.0
24/04/2022,04:46:17,0.000,0.0,0.0,0.0
24/04/2022,04:47:17,0.000,0.0,0.0,0.0
24/04/2022,04:48:17,0.001,0.0,0.0,0.0
24/04/2022,04:49:17,0.001,0.0,0.0,0.0
24/04/2022,04:50:17,0.001,0.0,0.0,0.0
24/04/2022,04:51:17,0.001,0.0,0.0,0.0
24/04/2022,04:52:25,0.001,0.0,0.0,0.0
24/04/2022,04:53:16,0.001,0.0,0.0,0.0
24/04/2022,04:54:17,0.002,0.0,0.0,0.0
24/04/2022,04:55:17,0.002,0.0,0.0,0.0
24/04/2022,04:56:17,0.001,0.0,0.0,0.0
24/04/2022,04:57:17,0.000,0.0,0.0,0.0
24/04/2022,04:58:17,0.001,0.0,0.0,0.0
24/04/2022,04:59:17,0.001,0.0,0.0,0.0
24/04/2022,05:00:17,0.001,0.0,0.0,0.0
24/04/2022,05:01:17,0.001,0.0,0.0,0.0
24/04/2022,05:02:17,0.001,0.0,0.0,0.0
24/04/2022,05:03:17,0.001,0.0,0.0,0.0
24/04/2022,05:04:17,0.002,0.0,0.0,0.0
24/04/2022,05:05:17,0.002,0.0,0.0,0.0
24/04/2022,05:06:17,0.002,0.0,0.0,0.0
24/04/2022,05:07:17,0.001,0.0,0.0,0.0
24/04/2022,05:08:17,0.002,0.0,0.0,0.0
24/04/2022,05:09:17,0.001,0.0,0.0,0.0
24/04/2022,05:10:17,0.002,0.0,0.0,0.0
24/04/2022,05:11:19,0.004,0.0,0.0,0.0
24/04/2022,05:12:17,0.003,0.0,0.0,0.0
24/04/2022,05:13:17,0.002,0.0,0.0,0.0
24/04/2022,05:14:17,0.002,0.0,0.0,0.0
24/04/2022,05:15:17,0.003,0.0,0.0,0.0
24/04/2022,05:16:17,0.003,0.0,0.0,0.0
24/04/2022,05:17:17,0.004,0.0,0.0,0.0
24/04/2022,05:18:17,0.004,0.0,0.0,0.0
24/04/2022,05:19:17,0.004,0.0,0.0,0.0
24/04/2022,05:20:17,0.004,0.0,0.0,0.0
24/04/2022,05:21:17,0.004,0.0,0.0,0.0
24/04/2022,05:22:17,0.004,0.0,0.0,0.0
24/04/2022,05:23:17,0.004,0.0,0.0,0.0
24/04/2022,05:24:17,0.003,0.0,0.0,0.0
24/04/2022,05:25:17,0.003,0.0,0.0,0.0
24/04/2022,05:26:17,0.005,0.0,0.0,0.0
24/04/2022,05:27:18,0.005,0.0,0.0,0.0
24/04/2022,05:28:17,0.005,0.0,0.0,0.0
24/04/2022,05:29:17,0.005,0.0,0.0,0.0
24/04/2022,05:30:16,0.006,0.0,0.0,0.0
24/04/2022,05:31:19,0.006,0.0,0.0,0.0
24/04/2022,05:32:17,0.006,0.0,0.0,0.0
24/04/2022,05:33:17,0.006,0.0,0.0,0.0
24/04/2022,05:34:17,0.006,0.0,0.0,0.0
24/04/2022,05:35:08,0.007,0.0,0.0,0.0
24/04/2022,05:36:18,0.006,0.0,0.0,0.0
24/04/2022,05:37:17,0.005,0.0,0.0,0.0
24/04/2022,05:38:17,0.007,0.0,0.001,0.001
24/04/2022,05:39:17,0.007,0.0,0.001,0.0
24/04/2022,05:40:17,0.009,0.0,0.001,0.0
24/04/2022,05:41:17,0.007,0.0,0.001,0.0
24/04/2022,05:42:17,0.009,0.0,0.001,0.0
24/04/2022,05:43:17,0.008,0.0,0.001,0.0
24/04/2022,05:44:17,0.009,0.0,0.001,0.0
24/04/2022,05:45:25,0.007,0.0,0.001,0.0
24/04/2022,05:47:17,0.010,0.0,0.002,0.001
24/04/2022,05:48:17,0.010,0.0,0.002,0.0
24/04/2022,05:49:17,0.010,0.0,0.002,0.0
24/04/2022,05:50:17,0.011,0.0,0.002,0.0
24/04/2022,05:51:17,0.011,0.0,0.002,0.0
24/04/2022,05:52:17,0.010,0.0,0.003,0.001
24/04/2022,05:53:17,0.011,0.0,0.003,0.0
24/04/2022,05:54:17,0.014,0.0,0.003,0.0
24/04/2022,05:55:17,0.013,0.0,0.003,0.0
24/04/2022,05:56:17,0.014,0.0,0.003,0.0
24/04/2022,05:57:17,0.013,0.0,0.004,0.001
24/04/2022,05:58:26,0.014,0.0,0.004,0.0
24/04/2022,06:00:26,0.015,0.0,0.004,0.0
24/04/2022,06:02:18,0.017,0.0,0.005,0.001
24/04/2022,06:03:16,0.017,0.0,0.005,0.0
24/04/2022,06:04:17,0.016,0.0,0.005,0.0
24/04/2022,06:05:17,0.016,0.0,0.006,0.001
24/04/2022,06:06:17,0.018,0.0,0.006,0.0
24/04/2022,06:07:18,0.019,0.0,0.006,0.0
24/04/2022,06:08:17,0.020,0.0,0.007,0.001
24/04/2022,06:09:17,0.019,0.0,0.007,0.0
24/04/2022,06:10:17,0.018,0.0,0.007,0.0
24/04/2022,06:11:17,0.019,0.0,0.008,0.001
24/04/2022,06:12:17,0.018,0.0,0.008,0.0
24/04/2022,06:13:17,0.021,0.0,0.008,0.0
24/04/2022,06:14:17,0.023,0.0,0.009,0.001
24/04/2022,06:15:17,0.023,0.0,0.009,0.0
24/04/2022,06:16:17,0.021,0.0,0.009,0.0
24/04/2022,06:17:17,0.021,0.0,0.01,0.001
24/04/2022,06:18:18,0.022,0.0,0.01,0.0
24/04/2022,06:19:08,0.022,0.0,0.01,0.0
24/04/2022,06:20:18,0.024,0.0,0.011,0.001
24/04/2022,06:21:18,0.025,0.0,0.011,0.0
24/04/2022,06:22:17,0.027,0.0,0.012,0.001
24/04/2022,06:23:17,0.026,0.0,0.012,0.0
24/04/2022,06:24:17,0.027,0.0,0.013,0.001
24/04/2022,06:25:26,0.028,0.0,0.013,0.0
24/04/2022,06:26:17,0.027,0.0,0.014,0.001
24/04/2022,06:27:17,0.029,0.0,0.014,0.0
24/04/2022,06:28:17,0.030,0.0,0.014,0.0
24/04/2022,06:29:17,0.031,0.0,0.015,0.001
24/04/2022,06:30:17,0.030,0.0,0.016,0.001
24/04/2022,06:31:17,0.032,0.0,0.016,0.0
24/04/2022,06:32:17,0.031,0.0,0.017,0.001
24/04/2022,06:33:17,0.028,0.0,0.017,0.0
24/04/2022,06:34:17,0.034,0.0,0.018,0.001
24/04/2022,06:35:17,0.038,0.0,0.018,0.0
24/04/2022,06:36:17,0.042,0.0,0.019,0.001
24/04/2022,06:37:18,0.039,0.0,0.019,0.0
24/04/2022,06:38:17,0.042,0.0,0.02,0.001
24/04/2022,06:39:17,0.040,0.0,0.021,0.001
24/04/2022,06:40:17,0.040,0.0,0.022,0.001
24/04/2022,06:41:26,0.036,0.0,0.022,0.0
24/04/2022,06:42:17,0.036,0.0,0.023,0.001
24/04/2022,06:43:17,0.044,0.0,0.023,0.0
24/04/2022,06:44:17,0.045,0.0,0.024,0.001
24/04/2022,06:45:18,0.049,0.0,0.025,0.001
24/04/2022,06:46:17,0.047,0.0,0.026,0.001
24/04/2022,06:47:17,0.045,0.0,0.026,0.0
24/04/2022,06:48:21,0.049,0.0,0.027,0.001
24/04/2022,06:49:17,0.048,0.0,0.028,0.001
24/04/2022,06:50:17,0.044,0.0,0.029,0.001
24/04/2022,06:51:18,0.047,0.0,0.03,0.001
24/04/2022,06:52:17,0.049,0.0,0.03,0.0
24/04/2022,06:53:17,0.058,0.0,0.031,0.001
24/04/2022,06:54:26,0.057,0.0,0.032,0.001
24/04/2022,06:56:19,0.058,0.0,0.034,0.002
24/04/2022,06:57:17,0.065,0.0,0.035,0.001
24/04/2022,06:58:17,0.064,0.0,0.036,0.001
24/04/2022,06:59:17,0.066,0.0,0.037,0.001
24/04/2022,07:00:17,0.068,0.0,0.039,0.002
24/04/2022,07:01:17,0.062,0.0,0.04,0.001
24/04/2022,07:02:17,0.060,0.0,0.041,0.001
24/04/2022,07:03:17,0.064,0.0,0.042,0.001
24/04/2022,07:04:18,0.065,0.0,0.043,0.001
24/04/2022,07:05:17,0.064,0.0,0.044,0.001
24/04/2022,07:06:17,0.069,0.0,0.045,0.001
24/04/2022,07:07:17,0.078,0.0,0.046,0.001
24/04/2022,07:08:25,0.082,0.0,0.048,0.002
24/04/2022,07:10:18,0.111,0.0,0.051,0.003
24/04/2022,07:11:18,0.110,0.0,0.053,0.002
24/04/2022,07:12:17,0.092,0.0,0.054,0.001
24/04/2022,07:13:25,0.102,0.0,0.056,0.002
24/04/2022,07:15:18,0.091,0.0,0.059,0.003
24/04/2022,07:16:18,0.103,0.0,0.061,0.002
24/04/2022,07:17:17,0.111,0.0,0.062,0.001
24/04/2022,07:18:18,0.120,0.0,0.064,0.002
24/04/2022,07:19:17,0.106,0.0,0.066,0.002
24/04/2022,07:20:17,0.096,0.0,0.068,0.002
24/04/2022,07:21:17,0.115,0.0,0.07,0.002
24/04/2022,07:22:17,0.113,0.0,0.072,0.002
24/04/2022,07:23:17,0.104,0.0,0.073,0.001
24/04/2022,07:24:18,0.098,0.0,0.075,0.002
24/04/2022,07:25:17,0.117,0.0,0.077,0.002
24/04/2022,07:26:25,0.123,0.0,0.079,0.002
24/04/2022,07:27:17,0.121,0.0,0.081,0.002
24/04/2022,07:28:17,0.118,0.0,0.083,0.002
24/04/2022,07:29:18,0.119,0.0,0.085,0.002
24/04/2022,07:30:17,0.150,0.0,0.087,0.002
24/04/2022,07:31:17,0.176,0.0,0.09,0.003
24/04/2022,07:32:17,0.146,0.0,0.093,0.003
24/04/2022,07:33:18,0.123,0.0,0.095,0.002
24/04/2022,07:34:17,0.131,0.0,0.097,0.002
24/04/2022,07:35:17,0.163,0.0,0.099,0.002
24/04/2022,07:36:17,0.172,0.0,0.102,0.003
24/04/2022,07:37:18,0.178,0.0,0.105,0.003
24/04/2022,07:38:16,0.169,0.0,0.108,0.003
24/04/2022,07:39:18,0.160,0.0,0.111,0.003
24/04/2022,07:40:18,0.162,0.0,0.113,0.002
24/04/2022,07:41:17,0.163,0.0,0.116,0.003
24/04/2022,07:42:26,0.182,0.0,0.119,0.003
24/04/2022,07:43:17,0.205,0.0,0.122,0.003
24/04/2022,07:44:17,0.210,0.0,0.125,0.003
24/04/2022,07:45:17,0.211,0.0,0.129,0.004
24/04/2022,07:46:17,0.189,0.0,0.132,0.003
24/04/2022,07:47:19,0.192,0.0,0.136,0.004
24/04/2022,07:48:18,0.213,0.0,0.139,0.003
24/04/2022,07:49:17,0.208,0.0,0.142,0.003
24/04/2022,07:50:17,0.205,0.0,0.146,0.004
24/04/2022,07:51:17,0.189,0.0,0.149,0.003
24/04/2022,07:52:18,0.169,0.0,0.152,0.003
24/04/2022,07:53:18,0.199,0.0,0.155,0.003
24/04/2022,07:54:17,0.213,0.0,0.159,0.004
24/04/2022,07:55:18,0.213,0.0,0.162,0.003
24/04/2022,07:56:17,0.214,0.0,0.166,0.004
24/04/2022,07:57:18,0.225,1.0,0.169,0.003
24/04/2022,07:58:17,0.235,1.0,0.173,0.004
24/04/2022,07:59:17,0.238,1.0,0.177,0.004
24/04/2022,08:00:18,0.253,1.0,0.181,0.004
24/04/2022,08:01:18,0.257,1.0,0.186,0.005
24/04/2022,08:02:17,0.236,1.0,0.19,0.004
24/04/2022,08:03:17,0.235,1.0,0.193,0.003
24/04/2022,08:04:18,0.266,1.0,0.198,0.005
24/04/2022,08:05:17,0.285,1.0,0.202,0.004
24/04/2022,08:06:17,0.263,1.0,0.207,0.005
24/04/2022,08:07:17,0.268,1.0,0.211,0.004
24/04/2022,08:08:26,0.256,1.0,0.217,0.006
24/04/2022,08:10:18,0.275,1.0,0.225,0.008
24/04/2022,08:11:33,0.301,1.0,0.231,0.006
24/04/2022,08:13:18,0.315,1.0,0.24,0.009
24/04/2022,08:14:18,0.390,1.0,0.246,0.006
24/04/2022,08:15:18,0.368,1.0,0.252,0.006
24/04/2022,08:16:18,0.318,1.0,0.258,0.006
24/04/2022,08:17:17,0.304,1.0,0.263,0.005
24/04/2022,08:18:17,0.318,1.0,0.268,0.005
24/04/2022,08:19:17,0.329,1.0,0.273,0.005
24/04/2022,08:20:18,0.339,1.0,0.279,0.006
24/04/2022,08:21:17,0.328,1.0,0.285,0.006
24/04/2022,08:22:17,0.361,1.0,0.29,0.005
24/04/2022,08:23:18,0.377,1.0,0.297,0.007
24/04/2022,08:24:26,0.352,1.0,0.303,0.006
24/04/2022,08:26:17,0.361,1.0,0.315,0.012
24/04/2022,08:27:18,0.367,1.0,0.321,0.006
24/04/2022,08:28:17,0.369,1.0,0.327,0.006
24/04/2022,08:29:18,0.374,1.0,0.333,0.006
24/04/2022,08:30:17,0.369,1.0,0.339,0.006
24/04/2022,08:31:17,0.348,1.0,0.345,0.006
24/04/2022,08:32:17,0.367,1.0,0.351,0.006
24/04/2022,08:33:18,0.349,1.0,0.357,0.006
24/04/2022,08:34:17,0.354,1.0,0.363,0.006
24/04/2022,08:35:17,0.368,1.0,0.369,0.006
24/04/2022,08:36:18,0.397,1.0,0.375,0.006
24/04/2022,08:37:17,0.373,1.0,0.382,0.007
24/04/2022,08:38:17,0.384,1.0,0.388,0.006
24/04/2022,08:39:17,0.407,1.0,0.395,0.007
24/04/2022,08:40:17,0.396,1.0,0.402,0.007
24/04/2022,08:41:17,0.436,1.0,0.408,0.006
24/04/2022,08:42:18,0.417,1.0,0.415,0.007
24/04/2022,08:43:17,0.436,1.0,0.422,0.007
24/04/2022,08:44:17,0.431,1.0,0.43,0.008
24/04/2022,08:45:17,0.399,1.0,0.437,0.007
24/04/2022,08:46:17,0.532,1.0,0.443,0.006
24/04/2022,08:47:18,0.459,1.0,0.452,0.009
24/04/2022,08:48:25,0.473,1.0,0.461,0.009
24/04/2022,08:49:16,0.534,1.0,0.468,0.007
24/04/2022,08:50:18,0.608,1.0,0.478,0.01
24/04/2022,08:51:17,0.615,1.0,0.488,0.01
24/04/2022,08:52:17,0.617,1.0,0.499,0.011
24/04/2022,08:53:17,0.628,1.0,0.509,0.01
24/04/2022,08:54:17,0.644,1.0,0.519,0.01
24/04/2022,08:55:18,0.640,1.0,0.53,0.011
24/04/2022,08:56:17,0.609,1.0,0.539,0.009
24/04/2022,08:57:17,0.593,1.0,0.549,0.01
24/04/2022,08:58:25,0.660,2.0,0.561,0.012
24/04/2022,08:59:17,0.664,2.0,0.571,0.01
24/04/2022,09:00:17,0.670,2.0,0.582,0.011
24/04/2022,09:01:17,0.679,2.0,0.593,0.011
24/04/2022,09:02:18,0.692,2.0,0.605,0.012
24/04/2022,09:03:17,0.663,2.0,0.616,0.011
24/04/2022,09:04:18,0.704,2.0,0.626,0.01
24/04/2022,09:05:17,0.699,2.0,0.638,0.012
24/04/2022,09:06:17,0.593,1.0,0.649,0.011
24/04/2022,09:07:17,0.724,2.0,0.661,0.012
24/04/2022,09:08:17,0.732,2.0,0.673,0.012
24/04/2022,09:09:17,0.734,2.0,0.686,0.013
24/04/2022,09:10:18,0.718,2.0,0.698,0.012
24/04/2022,09:11:25,0.743,2.0,0.712,0.014
24/04/2022,09:13:19,0.745,2.0,0.735,0.023
24/04/2022,09:14:26,0.572,1.0,0.748,0.013
24/04/2022,09:15:17,0.580,1.0,0.757,0.009
24/04/2022,09:16:17,0.555,1.0,0.766,0.009
24/04/2022,09:17:18,0.609,1.0,0.775,0.009
24/04/2022,09:18:17,0.585,1.0,0.785,0.01
24/04/2022,09:19:18,0.764,2.0,0.796,0.011
24/04/2022,09:20:17,0.788,2.0,0.808,0.012
24/04/2022,09:21:17,0.799,2.0,0.822,0.014
24/04/2022,09:22:18,0.805,2.0,0.835,0.013
24/04/2022,09:23:18,0.819,2.0,0.849,0.014
24/04/2022,09:24:17,0.823,2.0,0.862,0.013
24/04/2022,09:25:18,0.827,2.0,0.876,0.014
24/04/2022,09:26:17,0.834,2.0,0.89,0.014
24/04/2022,09:27:26,0.840,2.0,0.906,0.016
24/04/2022,09:29:18,0.838,2.0,0.932,0.026
24/04/2022,09:30:17,0.764,2.0,0.945,0.013
24/04/2022,09:31:17,0.823,2.0,0.958,0.013
24/04/2022,09:32:17,0.861,2.0,0.972,0.014
24/04/2022,09:33:17,0.861,2.0,0.987,0.015
24/04/2022,09:34:18,0.875,2.0,1.001,0.014
24/04/2022,09:35:17,0.889,2.0,1.016,0.015
24/04/2022,09:36:19,0.711,2.0,1.03,0.014
24/04/2022,09:37:18,0.877,2.0,1.043,0.013
24/04/2022,09:38:17,0.895,2.0,1.058,0.015
24/04/2022,09:39:18,0.851,2.0,1.071,0.013
24/04/2022,09:40:26,0.688,2.0,1.084,0.013
24/04/2022,09:41:17,0.885,2.0,1.097,0.013
24/04/2022,09:42:17,0.879,2.0,1.11,0.013
24/04/2022,09:43:18,0.882,2.0,1.123,0.013
24/04/2022,09:44:17,0.798,2.0,1.137,0.014
24/04/2022,09:45:18,0.939,2.0,1.152,0.015
24/04/2022,09:46:25,0.969,2.0,1.17,0.018
24/04/2022,09:48:18,0.977,2.0,1.2,0.03
24/04/2022,09:49:18,0.996,2.0,1.217,0.017
24/04/2022,09:50:18,1.007,2.0,1.233,0.016
24/04/2022,09:51:17,1.026,2.0,1.25,0.017
24/04/2022,09:52:17,1.018,2.0,1.267,0.017
24/04/2022,09:53:17,1.017,2.0,1.284,0.017
24/04/2022,09:54:17,1.023,2.0,1.301,0.017
24/04/2022,09:55:18,1.036,2.0,1.319,0.018
24/04/2022,09:56:17,1.050,2.0,1.336,0.017
24/04/2022,09:57:17,1.071,2.0,1.354,0.018
24/04/2022,09:58:17,1.079,2.0,1.371,0.017
24/04/2022,09:59:26,1.079,2.0,1.392,0.021
24/04/2022,10:01:18,1.074,2.0,1.425,0.033
24/04/2022,10:02:17,1.078,2.0,1.443,0.018
24/04/2022,10:03:17,1.080,2.0,1.461,0.018
24/04/2022,10:04:17,1.080,2.0,1.479,0.018
24/04/2022,10:05:17,1.099,3.0,1.497,0.018
24/04/2022,10:06:18,1.100,3.0,1.516,0.019
24/04/2022,10:07:18,1.114,3.0,1.534,0.018
24/04/2022,10:08:18,1.127,3.0,1.553,0.019
24/04/2022,10:09:18,1.145,3.0,1.572,0.019
24/04/2022,10:10:17,1.157,3.0,1.591,0.019
24/04/2022,10:11:17,1.169,3.0,1.61,0.019
24/04/2022,10:12:18,1.173,3.0,1.63,0.02
24/04/2022,10:13:17,1.183,3.0,1.649,0.019
24/04/2022,10:14:26,1.183,3.0,1.672,0.023
24/04/2022,10:15:25,1.188,3.0,1.691,0.019
24/04/2022,10:17:18,1.188,3.0,1.729,0.038
24/04/2022,10:18:18,1.181,3.0,1.748,0.019
24/04/2022,10:19:17,1.177,3.0,1.768,0.02
24/04/2022,10:20:17,1.183,3.0,1.788,0.02
24/04/2022,10:21:17,1.196,3.0,1.807,0.019
24/04/2022,10:22:17,1.191,3.0,1.827,0.02
24/04/2022,10:23:17,1.203,3.0,1.847,0.02
24/04/2022,10:24:18,1.201,3.0,1.867,0.02
24/04/2022,10:25:17,1.205,3.0,1.887,0.02
24/04/2022,10:26:18,1.219,3.0,1.908,0.021
24/04/2022,10:27:18,1.226,3.0,1.928,0.02
24/04/2022,10:28:18,1.238,3.0,1.948,0.02
24/04/2022,10:29:18,1.230,3.0,1.969,0.021